USA 134

Last updated on Thu Aug 13 2026 00:02:57 GMT+0000 (Coordinated Universal Time)

1 25019U 97065A 26224.47859417 -.00000080 00000+0 00000+0 0 9992 2 25019 12.8505 21.2890 0001916 306.4524 53.3870 1.00274038 33516
UTC large
Height (km)
Speed (km/s)
/
Latitude / Longitude
Inclination (degrees)
Orbital Period (minutes)
Azimuth
Elevation
Range (km)
Doppler Factor

Next 0 passes for location: London (51.5072 / 0.1276)

No passes found over London.
USA 134